EW2642 Weather Reports


Display with metric or nautical units.
time (UTC)temp
F
wind
direction
speed
MPH
gust
MPH
rain 1hr
in
rain 24hr
in
rain mn
in
humidity
%
barometer
mb
20260509011533 69 327 9.0 17.0 0.00 0.00 0.00 19 1018.5
20260509010028 70 285 12.0 17.0 0.00 0.00 0.00 18 1018.4
20260509004533 71 318 11.0 19.0 0.00 0.00 0.00 16 1018.4
20260509003028 71 279 9.0 17.0 0.00 0.00 0.00 16 1018.4
20260509001525 71 325 14.0 22.0 0.00 0.00 0.00 15 1018.4
20260509000024 71 247 14.0 23.0 0.00 0.00 0.00 15 1018.3
20260508234531 71 261 13.0 21.0 0.00 0.00 0.00 15 1018.3
20260508233027 72 267 11.0 21.0 0.00 0.00 0.00 15 1018.2
20260508231525 72 286 16.0 24.0 0.00 0.00 0.00 14 1018.3
20260508230004 73 274 14.0 20.0 0.00 0.00 0.00 14 1018.2
20260508224504 72 257 12.0 21.0 0.00 0.00 0.00 14 1018.2
20260508223004 72 220 11.0 24.0 0.00 0.00 0.00 14 1018.3
20260508221507 72 234 14.0 21.0 0.00 0.00 0.00 13 1018.3
20260508220004 72 247 13.0 21.0 0.00 0.00 0.00 15 1018.4
20260508214513 72 269 10.0 20.0 0.00 0.00 0.00 18 1018.4
20260508213003 72 250 12.0 19.0 0.00 0.00 0.00 19 1018.6
20260508211516 69 241 10.0 17.0 0.00 0.00 0.00 19 1018.6
20260508210004 70 263 15.0 24.0 0.00 0.00 0.00 18 1018.6
20260508204528 68 298 5.0 14.0 0.00 0.00 0.00 19 1018.7
20260508203032 68 249 2.0 13.0 0.00 0.00 0.00 19 1018.8
20260508201526 67 298 5.0 13.0 0.00 0.00 0.00 19 1018.7
20260508200028 69 256 8.0 18.0 0.00 0.00 0.00 19 1018.9
20260508194533 69 237 8.0 17.0 0.00 0.00 0.00 19 1019.2
20260508193028 68 220 6.0 17.0 0.00 0.00 0.00 20 1019.2
20260508191529 68 280 12.0 19.0 0.00 0.00 0.00 21 1019.5
20260508190028 67 285 9.0 19.0 0.00 0.00 0.00 22 1019.6
20260508184528 66 290 9.0 17.0 0.00 0.00 0.00 23 1019.8
20260508183027 65 288 9.0 19.0 0.00 0.00 0.00 24 1019.8
20260508181531 65 302 9.0 15.0 0.00 0.00 0.00 24 1020.0
20260508180032 62 288 9.0 15.0 0.00 0.00 0.00 27 1020.0
20260508174528 62 277 10.0 16.0 0.00 0.00 0.00 26 1020.0
20260508173028 62 288 9.0 16.0 0.00 0.00 0.00 26 1020.0
20260508171533 62 241 6.0 13.0 0.00 0.00 0.00 28 1019.8
20260508170025 61 268 11.0 18.0 0.00 0.00 0.00 28 1019.9
20260508164528 63 274 11.0 17.0 0.00 0.00 0.00 26 1019.8
20260508163028 62 261 10.0 18.0 0.00 0.00 0.00 28 1019.8
20260508161527 60 238 10.0 16.0 0.00 0.00 0.00 30 1019.8
20260508160028 60 277 8.0 15.0 0.00 0.00 0.00 31 1019.7
20260508154541 58 281 10.0 15.0 0.00 0.00 0.00 34 1019.8
20260508153027 57 265 8.0 13.0 0.00 0.00 0.00 37 1019.7
20260508151526 55 225 7.0 12.0 0.00 0.00 0.00 41 1019.7
20260508150035 55 238 5.0 10.0 0.00 0.00 0.00 43 1019.7
20260508144527 52 248 4.0 8.0 0.00 0.00 0.00 45 1019.6
20260508143029 48 292 3.0 6.0 0.00 0.00 0.00 50 1019.5
20260508141509 45 284 1.0 2.0 0.00 0.00 0.00 51 1019.5
20260508140031 44 297 0.0 2.0 0.00 0.00 0.00 55 1019.4
20260508134511 43 297 0.0 2.0 0.00 0.00 0.00 53 1019.3
20260508133008 42 284 1.0 3.0 0.00 0.00 0.00 52 1019.2
20260508131526 41 292 0.0 4.0 0.00 0.00 0.00 54 1018.9
20260508130011 41 256 2.0 3.0 0.00 0.00 0.00 54 1018.8
20260508124508 41 219 1.0 3.0 0.00 0.00 0.00 52 1018.6
20260508123006 40 262 1.0 2.0 0.00 0.00 0.00 54 1018.6
20260508121508 43 229 0.0 2.0 0.00 0.00 0.00 49 1018.7
20260508120007 45 310 2.0 5.0 0.00 0.00 0.00 46 1018.7
20260508114507 45 298 3.0 7.0 0.00 0.00 0.00 46 1018.7
20260508113008 45 281 2.0 3.0 0.00 0.00 0.00 48 1018.7
20260508111504 46 290 2.0 6.0 0.00 0.00 0.00 47 1018.6
20260508110008 47 313 3.0 6.0 0.00 0.00 0.00 46 1018.7
20260508104508 46 317 3.0 5.0 0.00 0.00 0.00 48 1018.7
20260508103006 47 291 1.0 8.0 0.00 0.00 0.00 46 1018.7
20260508101526 46 300 4.0 7.0 0.00 0.00 0.00 48 1018.6
20260508100004 48 277 3.0 8.0 0.00 0.00 0.00 45 1018.6
20260508094506 48 280 4.0 7.0 0.00 0.00 0.00 45 1018.5
20260508093011 49 292 3.0 7.0 0.00 0.00 0.00 45 1018.4
20260508091508 49 289 2.0 7.0 0.00 0.00 0.00 45 1018.4
20260508090007 49 306 4.0 9.0 0.00 0.00 0.00 45 1018.3
20260508084504 50 319 0.0 4.0 0.00 0.00 0.00 44 1018.3
20260508083008 50 262 2.0 5.0 0.00 0.00 0.00 44 1018.3
20260508081532 50 308 2.0 4.0 0.00 0.00 0.00 43 1018.3
20260508080028 51 311 1.0 4.0 0.00 0.00 0.00 42 1018.3
20260508074532 51 352 1.0 3.0 0.00 0.00 0.00 42 1018.3
20260508073028 52 27 1.0 2.0 0.00 0.00 0.00 42 1018.1
20260508071529 51 107 1.0 4.0 0.00 0.00 0.00 42 1018.1
20260508070027 52 70 2.0 3.0 0.00 0.00 0.00 42 1018.1
20260508064530 54 55 0.0 3.0 0.00 0.00 0.00 39 1018.0
20260508063028 54 229 0.0 3.0 0.00 0.00 0.00 38 1017.9
20260508061532 56 241 0.0 2.0 0.00 0.00 0.00 36 1017.8
20260508060028 57 241 0.0 3.0 0.00 0.00 0.00 35 1017.6
20260508054534 55 239 2.0 4.0 0.00 0.00 0.00 38 1017.6
20260508053034 55 220 1.0 3.0 0.00 0.00 0.00 39 1017.5
20260508051528 57 214 2.0 4.0 0.00 0.00 0.00 37 1017.3
20260508050025 60 321 2.0 10.0 0.00 0.00 0.00 32 1017.2
20260508044526 62 310 5.0 11.0 0.00 0.00 0.00 30 1017.2
20260508043027 62 281 7.0 12.0 0.00 0.00 0.00 30 1017.2
20260508041526 63 313 5.0 9.0 0.00 0.00 0.00 29 1016.9
20260508040028 64 323 4.0 12.0 0.00 0.00 0.00 28 1016.7
20260508034538 64 294 7.0 12.0 0.00 0.00 0.00 28 1016.4
20260508033025 64 278 7.0 13.0 0.00 0.00 0.00 29 1016.3
20260508031534 65 284 6.0 11.0 0.00 0.00 0.00 28 1016.1
20260508030027 66 294 5.0 9.0 0.00 0.00 0.00 27 1016.0
20260508024555 67 290 5.0 10.0 0.00 0.00 0.00 26 1015.8
20260508023028 68 315 7.0 12.0 0.00 0.00 0.00 24 1015.7
20260508021508 69 296 7.0 12.0 0.00 0.00 0.00 24 1015.6
20260508020027 70 309 7.0 12.0 0.00 0.00 0.00 22 1015.5
20260508014506 71 291 6.0 14.0 0.00 0.00 0.00 21 1015.5
20260508013035 72 306 8.0 13.0 0.00 0.00 0.00 20 1015.5